WB7CYS Weather Reports


Display with metric or nautical units.
time (UTC)temp
F
wind
direction
speed
MPH
gust
MPH
rain 1hr
in
rain 24hr
in
rain mn
in
humidity
%
barometer
mb
20260904140037 49 70 9.0 14.0 0.00 0.02 0.00 75 1010.8
20260904134534 0 0.0 0.0 0.00 0.02 0.00 1010.7
20260904133028 0 0.0 0.0 0.00 0.02 0.00 1010.8
20260904131524 0 0.0 0.0 0.00 0.02 0.00 1010.7
20260904130038 0 0.0 0.0 0.00 0.02 0.00 1010.6
20260904124517 0 0.0 0.0 0.00 0.02 0.00 1010.6
20260904123019 0 0.0 0.0 0.00 0.02 0.00 1010.5
20260904121507 0 0.0 0.0 0.00 0.02 0.00 1010.3
20260904120001 0 0.0 0.0 0.00 0.02 0.00 1010.2
20260904114557 0 0.0 0.0 0.00 0.02 0.00 1010.0
20260904113053 0 0.0 0.0 0.00 0.02 0.00 1009.8
20260904111547 0 0.0 0.0 0.00 0.02 0.00 1009.6
20260904110044 0 0.0 0.0 0.00 0.02 0.00 1009.4
20260904104540 0 0.0 0.0 0.00 0.02 0.00 1009.4
20260904103035 0 0.0 0.0 0.00 0.02 0.00 1009.3
20260904101531 0 0.0 0.0 0.00 0.02 0.00 1009.0
20260904100028 0 0.0 0.0 0.00 0.02 0.00 1008.7
20260904094522 0 0.0 0.0 0.00 0.02 0.00 1008.9
20260904093021 0 0.0 0.0 0.00 0.02 0.00 1008.9
20260904091519 0 0.0 0.0 0.00 0.02 0.00 1008.6
20260904090009 0 0.0 0.0 0.00 0.02 0.00 1008.8
20260904084505 0 0.0 0.0 0.00 0.03 0.00 1008.9
20260904083100 0 0.0 0.0 0.00 0.03 0.00 1008.7
20260904081600 0 0.0 0.0 0.00 0.03 0.00 1008.5
20260904080053 54 91 5.0 9.0 0.00 0.03 0.00 61 1008.5
20260904074550 54 86 6.0 8.0 0.00 0.03 0.00 61 1008.3
20260904073049 55 94 5.0 13.0 0.00 0.03 0.00 59 1008.2
20260904071545 55 85 7.0 13.0 0.00 0.03 0.00 59 1008.2
20260904070042 53 43 6.0 10.0 0.00 0.03 0.00 62 1008.0
20260904064540 54 66 8.0 11.0 0.00 0.12 0.03 61 1008.0
20260904063043 55 96 7.0 12.0 0.00 0.12 0.03 60 1007.9
20260904061545 55 65 9.0 15.0 0.00 0.12 0.03 62 1008.0
20260904060039 54 82 8.0 13.0 0.00 0.12 0.03 63 1008.1
20260904054539 54 110 6.0 12.0 0.00 0.17 0.03 62 1007.9
20260904053037 54 91 6.0 13.0 0.00 0.17 0.03 63 1007.9
20260904051537 54 134 5.0 9.0 0.00 0.17 0.03 62 1008.1
20260904050035 54 115 7.0 14.0 0.00 0.17 0.03 63 1008.3
20260904044549 54 80 10.0 15.0 0.00 0.20 0.03 67 1008.4
20260904043049 54 67 14.0 17.0 0.00 0.20 0.03 70 1008.2
20260904041533 54 70 14.0 19.0 0.00 0.20 0.03 68 1007.9
20260904040031 54 84 15.0 18.0 0.00 0.20 0.03 69 1007.8
20260904034530 54 85 16.0 21.0 0.00 0.21 0.03 67 1007.8
20260904033028 56 62 4.0 19.0 0.00 0.21 0.03 61 1007.8
20260904031526 55 98 13.0 21.0 0.00 0.21 0.03 63 1007.3
20260904030026 56 108 14.0 21.0 0.00 0.21 0.03 61 1007.4
20260904024526 55 113 13.0 20.0 0.01 0.21 0.03 63 1007.6
20260904023025 56 107 16.0 21.0 0.01 0.21 0.03 62 1007.3
20260904021525 57 99 17.0 21.0 0.01 0.21 0.03 59 1007.2
20260904020021 59 102 7.0 10.0 0.01 0.21 0.03 54 1007.5
20260904014520 61 193 3.0 10.0 0.00 0.20 0.02 52 1007.5
20260904013020 61 101 6.0 14.0 0.00 0.20 0.02 50 1007.1
20260904011518 61 72 10.0 14.0 0.00 0.20 0.02 58 1006.9
20260904010017 61 66 7.0 9.0 0.00 0.20 0.02 58 1007.1
20260904004516 61 89 3.0 8.0 0.00 0.20 0.02 62 1006.9
20260904003015 61 58 4.0 7.0 0.00 0.20 0.02 58 1007.0
20260904001516 62 56 1.0 4.0 0.00 0.20 0.02 56 1007.0
20260904000014 63 81 0.0 4.0 0.00 0.20 0.02 52 1007.2
20260903234523 63 101 0.0 1.0 0.00 0.20 0.02 50 1007.2
20260903233012 63 6 2.0 3.0 0.00 0.20 0.02 49 1007.4
20260903231512 63 321 4.0 5.0 0.00 0.20 0.02 49 1007.4
20260903230011 63 319 5.0 9.0 0.00 0.20 0.02 49 1007.3
20260903224522 63 321 6.0 9.0 0.00 0.20 0.02 49 1007.6
20260903223015 63 332 6.0 9.0 0.00 0.20 0.02 49 1007.8
20260903221509 63 280 6.0 8.0 0.00 0.20 0.02 48 1007.5
20260903220009 63 306 8.0 11.0 0.00 0.20 0.02 49 1007.7
20260903214508 63 13 3.0 6.0 0.00 0.20 0.02 49 1007.5
20260903213008 64 255 3.0 5.0 0.00 0.20 0.02 48 1008.2
20260903211506 64 323 2.0 5.0 0.00 0.20 0.02 48 1008.3
20260903210005 64 346 1.0 4.0 0.00 0.20 0.02 49 1008.1
20260903204503 63 231 1.0 5.0 0.00 0.20 0.02 50 1008.5
20260903203006 63 39 0.0 5.0 0.00 0.20 0.02 50 1008.6
20260903201601 62 281 0.0 6.0 0.00 0.20 0.02 51 1008.7
20260903200058 62 72 0.0 4.0 0.00 0.20 0.02 51 1009.0
20260903194556 62 311 3.0 6.0 0.00 0.20 0.02 51 1009.0
20260903193054 61 311 1.0 6.0 0.00 0.20 0.02 52 1008.8
20260903191557 61 283 3.0 6.0 0.00 0.20 0.02 52 1009.0
20260903190051 60 314 5.0 8.0 0.00 0.20 0.02 51 1009.0
20260903184556 60 301 3.0 7.0 0.00 0.20 0.02 50 1009.3
20260903183056 60 328 4.0 7.0 0.00 0.20 0.02 50 1009.2
20260903181549 60 274 4.0 6.0 0.00 0.20 0.02 52 1009.4
20260903180051 59 313 4.0 9.0 0.00 0.20 0.02 53 1009.4
20260903174546 59 308 6.0 9.0 0.00 0.20 0.02 55 1009.5
20260903173045 59 241 5.0 8.0 0.00 0.20 0.02 54 1009.6
20260903171546 59 260 7.0 10.0 0.00 0.20 0.02 50 1009.7
20260903170044 60 235 7.0 9.0 0.00 0.20 0.02 55 1009.5
20260903164541 59 248 5.0 7.0 0.00 0.20 0.02 55 1009.5
20260903163043 59 224 5.0 9.0 0.00 0.20 0.02 60 1009.5
20260903161549 59 197 5.0 9.0 0.00 0.20 0.02 67 1009.4
20260903160039 58 120 0.0 3.0 0.01 0.20 0.02 69 1009.5
20260903154533 57 98 2.0 7.0 0.01 0.20 0.02 73 1009.5
20260903153030 57 113 3.0 4.0 0.01 0.20 0.02 75 1009.7
20260903151528 56 108 4.0 7.0 0.01 0.20 0.02 77 1009.6
20260903150030 55 73 4.0 6.0 0.00 0.19 0.01 77 1009.7
20260903144527 54 77 4.0 7.0 0.00 0.19 0.01 78 1009.9
20260903143046 54 115 4.0 6.0 0.00 0.19 0.01 82 1009.7
20260903141520 0 0.0 0.0 0.00 0.19 0.01 1009.7